Date String (YYYY-MM-DD hh:mm:ss) UTC,Instrument flags,absolute air pressure of the measurement (hPa),sample flow rate (lpm),inlet stack bypass flow (lpm),air temperature of the measurement (°C),ambient temperature measured by the external sensor (°C),aerosol sample conditioner tube jacket temperature (°C),OPC LED temperature (°C),internal box temperature (°C),relative humidity of the measurement (%),span deviation,mass concentration of particles derived from Lorenz-Mie calculation of OPC scattering (μg/m³),mass concentration of particles derived from Lorenz-Mie calculation of OPC scattering (μg/m³),mass concentration of particles derived from Lorenz-Mie calculation of OPC scattering (μg/m³)
DateTimeUTC,F1_M11,P_M11,Q1_M11,Q2_M11,T1_M11,T2_M11,T3_M11,T4_M11,T5_M11,U1_M11,ZSPAN_M11,X0_M11,X2_M11,X1_M11
2023-09-04 19:00:00,SystemResetWarning,0822.4,5.00,000.00,027.7,026.3,000.0,036.0,029.5,26.2,0000.0,0004.89,0002.65,0002.19
2023-09-04 19:01:00,SystemResetWarning,0822.4,4.99,000.00,027.8,026.4,000.0,036.0,029.6,25.7,0000.0,0004.77,0002.58,0002.17
2023-09-04 19:02:00,SystemResetWarning,0822.4,4.99,000.00,027.8,025.4,000.0,036.0,029.2,26.5,0000.0,0005.66,0002.56,0002.17
2023-09-04 19:03:00,SystemResetWarning,0822.4,5.01,000.00,027.7,024.4,000.0,035.9,028.9,27.0,0000.0,0005.73,0002.58,0002.17
2023-09-04 19:04:00,SystemResetWarning,0822.4,5.01,000.00,027.6,024.4,000.0,035.9,028.9,25.8,0000.0,0005.74,0002.54,0002.16
2023-09-04 19:05:00,SystemResetWarning,0822.3,5.00,000.00,027.6,024.8,000.0,035.9,028.9,26.7,0000.0,0005.73,0002.53,0002.15
2023-09-04 19:06:00,SystemResetWarning,0822.4,5.00,000.00,027.6,025.2,000.0,035.9,029.1,27.3,0000.0,0005.83,0002.53,0002.14
2023-09-04 19:07:00,SystemResetWarning,0822.4,5.00,000.00,027.6,025.6,000.0,035.9,029.3,27.4,0000.0,0005.98,0002.55,0002.12
2023-09-04 19:08:00,SystemResetWarning,0822.4,4.99,000.00,027.7,026.0,000.0,035.9,029.4,27.1,0000.0,0005.84,0002.55,0002.10
2023-09-04 19:09:00,SystemResetWarning,0822.4,5.00,000.00,027.7,026.4,000.0,036.0,029.5,27.3,0000.0,0005.29,0002.49,0002.10
2023-09-04 19:10:00,SystemResetWarning,0822.4,4.99,000.00,027.8,026.0,000.0,036.0,029.3,26.1,0000.0,0004.70,0002.44,0002.08
2023-09-04 19:11:00,SystemResetWarning,0822.4,4.99,000.00,027.7,024.8,000.0,035.9,028.9,26.9,0000.0,0004.76,0002.46,0002.09
2023-09-04 19:12:00,SystemResetWarning,0822.3,5.01,000.00,027.6,024.3,000.0,035.8,028.7,27.4,0000.0,0004.86,0002.48,0002.08
2023-09-04 19:13:00,SystemResetWarning,0822.3,5.01,000.00,027.5,024.5,000.0,035.8,028.8,26.8,0000.0,0004.00,0002.44,0002.07
2023-09-04 19:14:00,SystemResetWarning,0822.2,4.99,000.00,027.5,024.9,000.0,035.8,028.9,26.4,0000.0,0003.87,0002.40,0002.05
2023-09-04 19:15:00,SystemResetWarning,0822.2,4.98,000.00,027.5,025.3,000.0,035.9,029.1,25.4,0000.0,0003.95,0002.42,0002.04
2023-09-04 19:16:00,SystemResetWarning,0822.2,5.00,000.00,027.6,025.8,000.0,035.9,029.3,25.6,0000.0,0003.86,0002.39,0002.02
2023-09-04 19:17:00,SystemResetWarning,0822.2,5.01,000.00,027.6,026.2,000.0,035.9,029.4,25.5,0000.0,0003.69,0002.33,0001.98
2023-09-04 19:18:00,SystemResetWarning,0822.1,5.00,000.00,027.7,026.5,000.0,035.9,029.5,28.0,0000.0,0003.52,0002.29,0001.97
2023-09-04 19:19:00,SystemResetWarning,0822.1,5.00,000.00,027.8,026.7,000.0,036.0,029.6,29.0,0000.0,0003.46,0002.26,0001.97
2023-09-04 19:20:00,SystemResetWarning,0822.1,4.98,000.00,027.8,025.8,000.0,035.9,029.2,29.2,0000.0,0003.44,0002.24,0001.95
2023-09-04 19:21:00,SystemResetWarning,0822.0,5.00,000.00,027.7,024.6,000.0,035.8,029.0,28.8,0000.0,0003.53,0002.27,0001.94
2023-09-04 19:22:00,SystemResetWarning,0822.1,5.02,000.00,027.6,024.5,000.0,035.8,029.0,27.9,0000.0,0003.46,0002.27,0001.93
2023-09-04 19:23:00,SystemResetWarning,0822.0,5.00,000.00,027.6,024.8,000.0,035.8,029.0,27.4,0000.0,0004.37,0002.23,0001.91
2023-09-04 19:24:00,SystemResetWarning,0821.9,5.00,000.00,027.6,025.2,000.0,035.9,029.2,27.8,0000.0,0005.78,0002.24,0001.91
2023-09-04 19:25:00,SystemResetWarning,0821.9,5.00,000.00,027.6,025.7,000.0,035.9,029.3,28.8,0000.0,0005.93,0002.22,0001.92
2023-09-04 19:26:00,SystemResetWarning,0821.9,4.99,000.00,027.7,026.1,000.0,035.9,029.4,27.5,0000.0,0005.90,0002.19,0001.92
2023-09-04 19:27:00,SystemResetWarning,0822.0,5.00,000.00,027.7,026.4,000.0,036.0,029.5,28.4,0000.0,0005.92,0002.21,0001.93
2023-09-04 19:28:00,SystemResetWarning,0821.9,5.00,000.00,027.8,026.6,000.0,036.0,029.6,29.0,0000.0,0006.02,0002.24,0001.94
2023-09-04 19:29:00,SystemResetWarning,0822.0,4.99,000.00,027.8,025.8,000.0,035.9,029.2,28.1,0000.0,0006.37,0002.27,0001.94
2023-09-04 19:30:00,SystemResetWarning,0821.9,4.99,000.00,027.7,024.6,000.0,035.9,028.8,27.5,0000.0,0006.56,0002.28,0001.94
2023-09-04 19:31:00,SystemResetWarning,0822.0,5.02,000.00,027.6,024.4,000.0,035.8,028.9,27.6,0000.0,0006.57,0002.28,0001.95
2023-09-04 19:32:00,SystemResetWarning,0822.0,5.00,000.00,027.5,024.7,000.0,035.9,028.9,27.4,0000.0,0006.56,0002.32,0001.96
2023-09-04 19:33:00,SystemResetWarning,0822.0,5.00,000.00,027.6,025.1,000.0,035.9,029.1,27.0,0000.0,0006.63,0002.34,0001.98
2023-09-04 19:34:00,SystemResetWarning,0821.9,5.01,000.00,027.6,025.6,000.0,035.9,029.2,27.9,0000.0,0006.28,0002.40,0001.99
2023-09-04 19:35:00,SystemResetWarning,0821.9,5.00,000.00,027.7,026.0,000.0,035.9,029.4,27.3,0000.0,0004.35,0002.40,0001.99
2023-09-04 19:36:00,SystemResetWarning,0821.9,5.00,000.00,027.7,026.3,000.0,035.9,029.5,26.7,0000.0,0004.69,0002.39,0001.98
2023-09-04 19:37:00,SystemResetWarning,0821.9,5.00,000.00,027.8,026.6,000.0,036.0,029.6,26.2,0000.0,0005.07,0002.38,0001.97
2023-09-04 19:38:00,SystemResetWarning,0821.9,4.98,000.00,027.8,025.8,000.0,035.9,029.3,26.0,0000.0,0005.55,0002.40,0001.96
2023-09-04 19:39:00,SystemResetWarning,0821.9,5.01,000.00,027.7,024.6,000.0,035.9,028.8,26.2,0000.0,0005.78,0002.41,0001.95
2023-09-04 19:40:00,SystemResetWarning,0821.8,5.01,000.00,027.6,024.3,000.0,035.8,028.8,26.2,0000.0,0005.61,0002.41,0001.95
2023-09-04 19:41:00,SystemResetWarning,0821.8,5.00,000.00,027.5,024.6,000.0,035.8,028.8,26.1,0000.0,0005.26,0002.40,0001.95
2023-09-04 19:42:00,SystemResetWarning,0821.7,5.00,000.00,027.5,025.0,000.0,035.9,029.0,27.3,0000.0,0005.26,0002.42,0001.95
2023-09-04 19:43:00,SystemResetWarning,0821.8,4.99,000.00,027.6,025.5,000.0,035.9,029.2,27.6,0000.0,0005.17,0002.39,0001.95
2023-09-04 19:44:00,SystemResetWarning,0821.8,5.00,000.00,027.6,025.9,000.0,035.9,029.3,26.9,0000.0,0005.20,0002.40,0001.94
2023-09-04 19:45:00,SystemResetWarning,0821.9,5.00,000.00,027.7,026.3,000.0,035.9,029.5,26.6,0000.0,0005.11,0002.35,0001.92
2023-09-04 19:46:00,SystemResetWarning,0821.8,5.00,000.00,027.8,026.6,000.0,036.0,029.6,25.1,0000.0,0005.05,0002.35,0001.92
2023-09-04 19:47:00,SystemResetWarning,0821.8,4.98,000.00,027.8,025.9,000.0,035.9,029.3,25.4,0000.0,0005.06,0002.38,0001.93
2023-09-04 19:48:00,SystemResetWarning,0821.8,5.00,000.00,027.7,024.7,000.0,035.9,028.9,25.5,0000.0,0003.98,0002.41,0001.93
2023-09-04 19:49:00,SystemResetWarning,0821.8,5.01,000.00,027.6,024.4,000.0,035.8,028.9,26.2,0000.0,0003.76,0002.43,0001.94
2023-09-04 19:50:00,SystemResetWarning,0821.7,5.01,000.00,027.5,024.7,000.0,035.8,028.9,25.6,0000.0,0003.46,0002.41,0001.93
2023-09-04 19:51:00,SystemResetWarning,0821.8,4.98,000.00,027.5,025.0,000.0,035.8,029.0,26.1,0000.0,0003.42,0002.38,0001.91
2023-09-04 19:52:00,SystemResetWarning,0821.8,5.01,000.00,027.6,025.5,000.0,035.9,029.2,25.6,0000.0,0003.40,0002.37,0001.91
2023-09-04 19:53:00,SystemResetWarning,0821.8,5.01,000.00,027.7,025.9,000.0,035.9,029.4,24.9,0000.0,0003.34,0002.32,0001.89
2023-09-04 19:54:00,SystemResetWarning,0821.8,4.99,000.00,027.7,026.3,000.0,035.9,029.5,24.8,0000.0,0003.35,0002.31,0001.88
2023-09-04 19:55:00,SystemResetWarning,0821.7,4.99,000.00,027.8,026.4,000.0,035.9,029.5,24.9,0000.0,0003.19,0002.26,0001.86
2023-09-04 19:56:00,SystemResetWarning,0821.7,4.99,000.00,027.7,025.2,000.0,035.9,029.0,25.3,0000.0,0003.05,0002.25,0001.88
2023-09-04 19:57:00,SystemResetWarning,0821.7,5.00,000.00,027.6,024.4,000.0,035.8,028.7,25.8,0000.0,0003.32,0002.24,0001.90
2023-09-04 19:58:00,SystemResetWarning,0821.6,5.01,000.00,027.5,024.5,000.0,035.8,028.8,26.7,0000.0,0004.00,0002.24,0001.90
2023-09-04 19:59:00,SystemResetWarning,0821.6,5.01,000.00,027.5,024.9,000.0,035.8,028.9,26.1,0000.0,0004.08,0002.25,0001.92
